Location: Cudham
(51.3000°N, 0.0667°E)
Time: 21:06:10
(UTC+00:00)

USA 229 DEB - Pass Details

Date: 19 May 2025
Orbit: 872 x 1339 km, 63.4° (Epoch: 20 June)

Event Time Altitude Azimuth Distance (km) Brightness Sun altitude
Exits shadow 23:20:43 30° 172° (S) 1,622 4.1 -18.3°
Maximum altitude 23:23:15 46° 121° (ESE) 1,301 3.9 -18.3°
Drops below altitude 10° 23:29:36 10° 51° (NE) 2,892 6.4 -18.5°
Sets 23:32:30 0° 46° (NE) 3,926 7.2 -18.5°
